Regional Weather Roundup
Issued by NWS

Home | Current Version | Previous Version | Text Only | Print | Product List | Glossary Off
Versions: 1 2 3 4 5 6 7 8 9 10 11 12 13 14 15 16 17 18 19 20 21 22 23 24 25 26 27 28 29 30 31 32 33 34 35 36 37 38 39 40 41 42 43 44 45 46 47 48 49 50

000
ASUS45 KCYS 220410
RWRWY

WYOMING REGIONAL WEATHER ROUNDUP
NATIONAL WEATHER SERVICE CHEYENNE WY
900 PM MST FRI NOV 21 2014

NOTE:  "FAIR" INDICATES FEW OR NO CLOUDS BELOW 12,000 FEET
WITH NO SIGNIFICANT WEATHER AND/OR OBSTRUCTIONS TO VISIBILITY.

WYZ001-220500-
YELLOWSTONE NATIONAL PARK

CITY           SKY/WX    TMP DP  RH WIND       PRES   REMARKS
LK YELLOWSTONE   N/A     26  21  81 VRB3      29.90F
W YELLOWSTONE  NOT AVBL

$$
WYZ002>013-054>058-071-098>099-220500-
NORTHERN WYOMING

CITY           SKY/WX    TMP DP  RH WIND       PRES   REMARKS
JACKSON        PTCLDY    25  23  93 SW8       29.92F WCI  16
CODY           PTCLDY    39  21  48 S10       29.76F WCI  32
GREYBULL       PTCLDY    14  12  92 CALM      29.82F
WORLAND        PTCLDY    19  17  92 S6        29.81F WCI  11
SHERIDAN       CLEAR     35  21  56 S6        29.74F WCI  30
BUFFALO        CLEAR     33  18  53 CALM      29.77F
GILLETTE       CLEAR     30  24  78 S13       29.78F WCI  20
HULETT           N/A    N/A N/A N/A MISG        N/A
NEWCASTLE      FAIR      27  21  80 CALM      29.85R

$$
WYZ014>020-022>026-101>103-220500-
CENTRAL WYOMING

CITY           SKY/WX    TMP DP  RH WIND       PRES   REMARKS
BIG PINEY      PTCLDY    17  14  88 E7        29.98F WCI   8
PINEDALE       PTCLDY    18  16  93 W3        29.99S
DUBOIS         FAIR      30  19  64 NW16      29.87F WCI  19
LANDER         NOT AVBL
RIVERTON       CLEAR     20  14  77 CALM      29.86F
CASPER         CLEAR     34  22  61 SW10      29.87F WCI  26
DOUGLAS        CLEAR     32  21  64 E3        29.87F

$$
WYZ021-027>030-104>119-220500-
SOUTHERN WYOMING

CITY           SKY/WX    TMP DP  RH WIND       PRES   REMARKS
EVANSTON       PTCLDY    31  19  61 SW10      30.00S WCI  22
KEMMERER       MOCLDY    30  21  69 W7        30.00S WCI  23
FORT BRIDGER   FAIR      34  22  61 W9        30.03R WCI  27
ROCK SPRINGS   PTCLDY    30  17  58 W12       29.99R WCI  20
DIXON          FAIR      24  18  80 CALM      30.04S
RAWLINS        CLEAR     35  17  47 SW15      29.96F WCI  25
SARATOGA       FAIR      28  19  69 S8        29.99F WCI  20
LARAMIE        CLEAR     28  17  63 S10       29.97S WCI  19
CHEYENNE       CLEAR     33  18  53 W12       29.95S WCI  24
TORRINGTON     CLEAR     36  21  54 SW6       29.88S WCI  31
PINE BLUFFS    FAIR      30  18  59 SW7       29.94F WCI  23

$$



USA.gov is the U.S. government's official web portal to all federal, state and local government web resources and services.